#timestamp,LO_Frequency,Hit,StdDev 
1693242015.1,286046999.9,N
1693242016.0,286046999.9,N
1693242035.8,286047000.0,N
1693242055.6,286046999.8,N
1693242075.5,286046999.8,N
1693242095.3,286047001.9,N
1693242115.1,286047001.4,N
1693242135.9,286047002.2,N
1693242155.7,286047003.8,Y
1693242175.5,286047002.0,P
1693242195.4,286046999.8,N
1693242215.2,286047000.1,N
1693242235.0,286047001.7,N
1693242235.9,286047001.7,N
1693242255.8,286047002.0,N
1693242275.6,286047001.6,N
1693242295.4,286047001.5,N
1693242315.3,286047001.9,N
1693242335.1,286047002.5,Y
1693242355.8,286046999.9,P
1693242375.7,286047002.5,P
1693242395.5,286047003.8,P
1693242415.3,286047003.7,N
1693242435.2,286047004.1,N
1693242455.0,286047003.2,N
1693242455.9,286047003.2,N
1693242475.7,286047001.5,N
1693242495.6,286047004.2,Y
1693242515.4,286047000.5,P
1693242535.2,286047001.0,N
1693242555.1,286047002.5,N
1693242556.0,286047002.5,N
1693242575.8,286047002.4,N
1693242595.6,286047002.0,N
1693242615.5,286047001.9,N
1693242635.3,286047002.0,N
1693242655.1,286047004.0,Y
1693242675.9,286047002.4,P
1693242695.7,286047000.4,N
1693242715.5,286046999.8,N
1693242735.4,286047002.0,N
1693242755.2,286047002.8,N
1693242775.0,286047002.8,N
1693242776.0,286047002.8,N
1693242795.8,286047001.3,N
1693242815.6,286047002.0,N
1693242835.5,286047002.2,N
1693242855.3,286047001.7,N
1693242875.1,286047001.6,N
1693242895.9,286047008.5,Y
1693242915.7,286047004.2,P
1693242935.5,286047002.0,N
1693242955.4,286047000.9,N
1693242975.2,286047002.3,N
1693242995.0,286047004.3,Y
1693242995.9,286047004.3,P
1693243015.8,286047000.0,N
1693243035.6,286046998.3,N
1693243055.4,286046999.4,N
1693243075.3,286046999.4,N
1693243095.1,286046996.8,N
1693243096.0,286046996.8,N
1693243115.8,286046996.5,N
1693243135.7,286046998.9,N
1693243155.5,286046998.3,N
1693243175.3,286046998.3,N
1693243195.2,286047001.1,N
1693243215.9,286047000.9,N
1693243235.7,286047000.8,N
1693243255.6,286046999.7,N
1693243275.4,286047002.5,N
1693243295.2,286047002.8,N
1693243315.1,286047002.2,N
1693243316.0,286047002.2,N
1693243335.8,286047002.2,N
1693243355.6,286047002.6,N
1693243375.5,286047002.2,N
1693243395.3,286047002.8,N
1693243415.1,286047002.6,N
1693243435.9,286047002.5,N
1693243455.7,286047001.6,N
1693243475.5,286047003.8,N
1693243495.4,286047004.0,N
1693243515.2,286047001.7,N
1693243535.0,286047004.3,N
1693243535.9,286047004.3,N
1693243555.8,286047003.8,N
1693243575.6,286047001.3,N
1693243595.4,286047003.5,N
1693243615.3,286047005.8,N
1693243635.1,286047016.8,Y
1693243636.0,286047016.8,P
1693243655.8,286047007.9,N
1693243675.7,286047005.4,N
1693243695.5,286047005.4,N
1693243715.3,286047005.7,N
1693243735.2,286047004.8,N
1693243755.9,286047005.5,N
1693243775.7,286047003.2,N
1693243795.6,286047003.2,N
1693243815.4,286047004.4,N
1693243835.2,286047004.0,N
1693243855.1,286047002.0,N
1693243856.0,286047002.0,N
1693243875.8,286047002.1,N
1693243895.6,286047001.7,N
1693243915.5,286047001.9,N
1693243935.3,286047004.4,N
1693243955.1,286047001.4,N
1693243975.9,286047002.1,N
1693243995.7,286047001.8,N
1693244015.5,286047001.9,N
1693244035.4,286047001.5,N
1693244055.2,286047004.1,N
1693244075.0,286047001.8,N
1693244075.9,286047001.8,N
1693244095.8,286047002.1,N
1693244115.6,286047001.7,N
1693244135.4,286047002.1,N
1693244155.3,286047001.5,N
1693244175.1,286047004.2,N
1693244195.8,286047004.1,N
1693244215.7,286047001.7,N
1693244235.5,286047003.2,N
1693244255.3,286047003.2,N
1693244275.2,286047005.7,Y
1693244295.9,286047002.5,P
1693244345.8,286047002.1,E
1693244355.7,286047002.7,N
1693244375.5,286047000.4,P
1693244395.4,286046999.9,N
1693244415.2,286047002.7,N
1693244435.0,286047000.1,N
1693244435.9,286047000.1,N
1693244455.8,286047002.7,N
1693244475.6,286047002.3,N
1693244495.4,286047002.6,N
1693244515.3,286047003.9,Y
1693244535.1,286047002.6,P
1693244536.0,286047002.6,P
1693244555.8,286047003.9,P
1693244575.7,286047003.8,Y
1693244595.5,286047000.3,P
1693244615.3,286047001.0,N
1693244635.2,286047000.8,N
1693244655.9,286047000.5,N
1693244675.7,286047000.4,N
1693244695.6,286047002.7,Y
1693244715.4,286046999.7,P
1693244735.2,286047000.0,N
1693244755.1,286047002.8,P
1693244756.0,286047002.8,N
1693244775.8,286047002.0,N
1693244795.6,286047001.4,N
1693244815.5,286047004.1,Y
1693244835.3,286047000.3,P
1693244855.1,286047000.4,N
1693244875.9,286047000.9,N
1693244895.7,286047002.8,Y
1693244915.5,286047004.2,P
1693244935.4,286047002.3,N
1693244955.2,286047000.0,N
1693244975.0,286047000.1,N
1693244975.9,286047000.1,N
1693244995.8,286046999.7,N
1693245015.6,286047001.6,N
1693245035.5,286047005.2,Y
1693245055.3,286047001.3,P
1693245075.1,286047001.3,P
1693245095.9,286047001.3,P
1693245115.7,286047002.0,Y
1693245135.5,286047000.9,P
1693245155.4,286047002.4,P
1693245175.2,286047002.6,P
1693245195.0,286047000.2,N
1693245195.9,286047000.2,N
1693245215.8,286047002.7,N
1693245235.6,286047001.9,N
1693245255.4,286047002.1,N
1693245275.3,286047002.1,N
1693245295.1,286046999.7,N
1693245296.0,286046999.7,N
1693245315.8,286047002.1,N
1693245335.7,286047002.1,N
1693245355.5,286047004.0,Y
1693245375.3,286046999.9,P
1693245395.2,286047002.1,N
1693245415.9,286047002.6,N
1693245435.7,286047004.2,Y
1693245455.6,286047001.3,P
1693245475.4,286047002.0,P
1693245495.2,286047001.6,P
1693245515.1,286047001.8,Y
1693245516.0,286047001.8,P
1693245535.8,286047002.1,P
1693245555.6,286047002.2,P
1693245575.5,286047002.8,Y
1693245595.3,286047001.1,P
